ALTAIR (RS65S)

Last updated on Sun Jun 21 2026 00:03:20 GMT+0000 (Coordinated Universal Time)

1 61779U 24199AW 26171.43221843 .00007443 00000+0 20710-3 0 9999 2 61779 97.3024 40.7613 0010884 297.7686 62.2454 15.37065018137611
UTC large
Height (km)
Speed (km/s)
/
Latitude / Longitude
Inclination (degrees)
Orbital Period (minutes)
Azimuth
Elevation
Range (km)
Doppler Factor

Next 0 passes for location: London (51.5072 / 0.1276)

No passes found over London.
ALTAIR (RS65S)